Heute – Wetterdaten der letzten 3 Stunden im 5 Min. Intervall

Wetterdaten der letzten 3 Stunden im 5 Min. Intervall
DatumAussentemperaturLuftdruckLuftfeuchtigkeitWindstärke Regen
26.03.19, 03:30 5.7 °C 1030.8 hPa 79 % 0.0 km/h 0.0 mm
26.03.19, 03:25 5.7 °C 1030.8 hPa 78 % 0.0 km/h 0.0 mm
26.03.19, 03:20 5.7 °C 1030.8 hPa 79 % 1.8 km/h 0.0 mm
26.03.19, 03:15 5.7 °C 1030.7 hPa 79 % 0.0 km/h 0.0 mm
26.03.19, 03:10 5.7 °C 1030.8 hPa 79 % 0.0 km/h 0.0 mm
26.03.19, 03:05 5.7 °C 1030.7 hPa 78 % 0.0 km/h 0.0 mm
26.03.19, 02:55 5.8 °C 1030.7 hPa 78 % 0.0 km/h 0.0 mm
26.03.19, 02:50 5.8 °C 1030.8 hPa 77 % 0.0 km/h 0.0 mm
26.03.19, 02:45 5.8 °C 1030.8 hPa 77 % 0.0 km/h 0.0 mm
26.03.19, 02:40 5.8 °C 1030.9 hPa 76 % 1.8 km/h 0.0 mm
26.03.19, 02:35 5.8 °C 1030.8 hPa 76 % 0.0 km/h 0.0 mm
26.03.19, 02:30 5.8 °C 1030.8 hPa 76 % 0.0 km/h 0.0 mm
26.03.19, 02:25 5.8 °C 1030.7 hPa 76 % 0.0 km/h 0.0 mm
26.03.19, 02:20 5.8 °C 1030.7 hPa 76 % 0.0 km/h 0.0 mm
26.03.19, 02:15 5.9 °C 1030.8 hPa 75 % 0.0 km/h 0.0 mm
26.03.19, 02:10 5.9 °C 1030.8 hPa 75 % 0.0 km/h 0.0 mm
26.03.19, 02:05 5.9 °C 1030.8 hPa 74 % 0.0 km/h 0.0 mm
26.03.19, 02:00 5.9 °C 1030.8 hPa 74 % 1.8 km/h 0.0 mm
26.03.19, 01:55 5.9 °C 1030.8 hPa 74 % 1.8 km/h 0.0 mm
26.03.19, 01:50 5.9 °C 1030.9 hPa 74 % 0.0 km/h 0.0 mm
26.03.19, 01:45 5.8 °C 1030.9 hPa 77 % 3.2 km/h 0.0 mm
26.03.19, 01:40 5.9 °C 1030.9 hPa 78 % 0.0 km/h 0.0 mm
26.03.19, 01:35 5.9 °C 1030.7 hPa 78 % 0.0 km/h 0.0 mm
26.03.19, 01:30 5.9 °C 1030.8 hPa 78 % 1.8 km/h 0.0 mm
26.03.19, 01:25 5.9 °C 1030.8 hPa 78 % 1.8 km/h 0.0 mm
26.03.19, 01:20 6.0 °C 1030.8 hPa 78 % 0.0 km/h 0.0 mm
26.03.19, 01:15 6.0 °C 1030.8 hPa 77 % 0.0 km/h 0.0 mm
26.03.19, 01:10 6.1 °C 1030.8 hPa 77 % 0.0 km/h 0.0 mm
26.03.19, 01:05 6.1 °C 1030.9 hPa 77 % 0.0 km/h 0.0 mm
26.03.19, 00:55 6.1 °C 1030.7 hPa 76 % 0.0 km/h 0.0 mm
26.03.19, 00:50 6.1 °C 1030.8 hPa 76 % 0.0 km/h 0.0 mm
26.03.19, 00:45 6.1 °C 1030.7 hPa 76 % 1.8 km/h 0.0 mm
26.03.19, 00:40 6.1 °C 1030.7 hPa 76 % 3.2 km/h 0.0 mm
26.03.19, 00:35 6.1 °C 1030.7 hPa 77 % 0.0 km/h 0.0 mm